When you browse on this site, cookies collect data to enhance your experience and personalize the content and advertising you see.
Visit our Privacy Policy to learn more. By continuing to use the site, you agree to this use of cookies and data.
  • In Deutschland
  • Länderverzeichnis
  • Für 7 Tage
  • Wassertemperatur
  • Wetterkarte
  • Widgets
  • user-avatar
    Anmelden

    Stündliche Wetter Ordino

    Heute, 25 August, Sonntag

    Zeit Temperatur Niederschläge Wind Luftdruck Luftfeuchtigkeit
    00:00 +14°C° 0 mm 1 m/S 636 mmHg 72%
    01:00 +14°C° 0 mm 1 m/S 636 mmHg 70%
    02:00 +14°C° 0 mm 2 m/S 636 mmHg 68%
    03:00 +13°C° 0 mm 2 m/S 635 mmHg 67%
    04:00 +14°C° 0 mm 1 m/S 636 mmHg 66%
    05:00 +14°C° 0 mm 1 m/S 636 mmHg 65%
    06:00 +14°C° 0 mm 1 m/S 636 mmHg 64%
    07:00 +18°C° 0 mm 1 m/S 637 mmHg 56%
    08:00 +21°C° 0 mm 1 m/S 638 mmHg 48%
    09:00 +23°C° 0 mm 1 m/S 639 mmHg 40%
    10:00 +24°C° 0 mm 1 m/S 639 mmHg 39%
    11:00 +24°C° 0 mm 1 m/S 639 mmHg 38%
    12:00 +25°C° 0 mm 2 m/S 639 mmHg 36%
    13:00 +25°C° 0 mm 2 m/S 639 mmHg 39%
    14:00 +24°C° 0 mm 1 m/S 638 mmHg 42%
    15:00 +24°C° 0 mm 1 m/S 638 mmHg 45%
    16:00 +23°C° 0 mm 1 m/S 637 mmHg 52%
    17:00 +21°C° 0 mm 1 m/S 637 mmHg 60%
    18:00 +20°C° 0 mm 1 m/S 636 mmHg 67%
    19:00 +18°C° 0 mm 1 m/S 636 mmHg 70%
    20:00 +16°C° 0 mm 1 m/S 636 mmHg 73%
    21:00 +15°C° 0 mm 1 m/S 636 mmHg 76%
    22:00 +15°C° 0 mm 1 m/S 635 mmHg 78%
    23:00 +14°C° 0 mm 1 m/S 635 mmHg 80%

    Morgen, 26 August, Montag

    Zeit Temperatur Niederschläge Wind Luftdruck Luftfeuchtigkeit
    00:00 +14°C° 0 mm 1 m/S 635 mmHg 82%
    01:00 +14°C° 0 mm 1 m/S 635 mmHg 81%
    02:00 +14°C° 0 mm 1 m/S 635 mmHg 81%
    03:00 +14°C° 0 mm 1 m/S 635 mmHg 80%
    04:00 +14°C° 0 mm 1 m/S 635 mmHg 79%
    05:00 +14°C° 0 mm 1 m/S 635 mmHg 78%
    06:00 +14°C° 0 mm 1 m/S 635 mmHg 76%
    07:00 +16°C° 0 mm 1 m/S 636 mmHg 65%
    08:00 +20°C° 0 mm 1 m/S 636 mmHg 55%
    09:00 +22°C° 0 mm 1 m/S 637 mmHg 44%
    10:00 +23°C° 0 mm 2 m/S 638 mmHg 40%
    11:00 +24°C° 0 mm 2 m/S 638 mmHg 35%
    12:00 +25°C° 0 mm 2 m/S 638 mmHg 31%
    13:00 +25°C° 0 mm 2 m/S 637 mmHg 32%
    14:00 +25°C° 0 mm 2 m/S 637 mmHg 33%
    15:00 +25°C° 0 mm 3 m/S 637 mmHg 34%
    16:00 +23°C° 0 mm 2 m/S 636 mmHg 42%
    17:00 +20°C° 0 mm 2 m/S 635 mmHg 50%
    18:00 +18°C° 0 mm 2 m/S 635 mmHg 57%
    19:00 +17°C° 0 mm 2 m/S 635 mmHg 62%
    20:00 +16°C° 0 mm 1 m/S 634 mmHg 67%
    21:00 +14°C° 0 mm 1 m/S 634 mmHg 71%
    22:00 +14°C° 0 mm 1 m/S 634 mmHg 71%
    23:00 +14°C° 0 mm 1 m/S 634 mmHg 71%

    übermorgen, 27 August, Dienstag

    Zeit Temperatur Niederschläge Wind Luftdruck Luftfeuchtigkeit
    00:00 +14°C° 0 mm 1 m/S 634 mmHg 71%
    01:00 +14°C° 0 mm 1 m/S 634 mmHg 70%
    02:00 +14°C° 0 mm 1 m/S 634 mmHg 70%
    03:00 +14°C° 0 mm 1 m/S 634 mmHg 69%
    04:00 +14°C° 0 mm 1 m/S 634 mmHg 68%
    05:00 +14°C° 0 mm 1 m/S 634 mmHg 67%
    06:00 +14°C° 0 mm 1 m/S 634 mmHg 65%
    07:00 +16°C° 0 mm 1 m/S 635 mmHg 63%
    08:00 +17°C° 0 mm 2 m/S 636 mmHg 60%
    09:00 +18°C° 0 mm 2 m/S 636 mmHg 57%
    10:00 +19°C° 0.2 mm 1 m/S 636 mmHg 60%
    11:00 +19°C° 0.2 mm 1 m/S 636 mmHg 62%
    12:00 +19°C° 0.2 mm 1 m/S 636 mmHg 65%
    13:00 +19°C° 0 mm 1 m/S 636 mmHg 66%
    14:00 +18°C° 0 mm 1 m/S 635 mmHg 68%
    15:00 +18°C° 0 mm 1 m/S 635 mmHg 69%
    16:00 +18°C° 0 mm 1 m/S 635 mmHg 72%
    17:00 +16°C° 0 mm 1 m/S 635 mmHg 74%
    18:00 +15°C° 0 mm 0 m/S 634 mmHg 77%
    19:00 +15°C° 0 mm 1 m/S 634 mmHg 79%
    20:00 +14°C° 0 mm 1 m/S 634 mmHg 81%
    21:00 +12°C° 0 mm 1 m/S 634 mmHg 83%
    22:00 +12°C° 0 mm 1 m/S 634 mmHg 82%
    23:00 +12°C° 0 mm 1 m/S 634 mmHg 82%

    28 August, Mittwoch

    Zeit Temperatur Niederschläge Wind Luftdruck Luftfeuchtigkeit
    00:00 +12°C° 0 mm 1 m/S 634 mmHg 81%
    01:00 +12°C° 0 mm 1 m/S 634 mmHg 82%
    02:00 +12°C° 0 mm 1 m/S 634 mmHg 82%
    03:00 +12°C° 0 mm 1 m/S 634 mmHg 83%
    04:00 +12°C° 0 mm 1 m/S 634 mmHg 82%
    05:00 +12°C° 0 mm 1 m/S 634 mmHg 81%
    06:00 +12°C° 0 mm 1 m/S 634 mmHg 80%
    07:00 +15°C° 0 mm 1 m/S 635 mmHg 70%
    08:00 +19°C° 0 mm 1 m/S 636 mmHg 60%
    09:00 +22°C° 0 mm 1 m/S 637 mmHg 50%
    10:00 +22°C° 0.1 mm 1 m/S 637 mmHg 52%
    11:00 +21°C° 0.1 mm 2 m/S 637 mmHg 53%
    12:00 +21°C° 0.1 mm 2 m/S 637 mmHg 55%
    13:00 +20°C° 0.6 mm 2 m/S 636 mmHg 61%
    14:00 +21°C° 0.6 mm 1 m/S 636 mmHg 68%
    15:00 +20°C° 0.6 mm 1 m/S 636 mmHg 75%
    16:00 +19°C° 0.7 mm 1 m/S 635 mmHg 79%
    17:00 +18°C° 0.7 mm 1 m/S 635 mmHg 83%
    18:00 +15°C° 0.7 mm 0 m/S 635 mmHg 88%
    19:00 +16°C° 0.2 mm 1 m/S 635 mmHg 89%
    20:00 +15°C° 0.2 mm 1 m/S 635 mmHg 90%
    21:00 +14°C° 0.2 mm 1 m/S 635 mmHg 91%
    22:00 +14°C° 0 mm 1 m/S 635 mmHg 91%
    23:00 +14°C° 0 mm 1 m/S 635 mmHg 91%

    29 August, Donnerstag

    Zeit Temperatur Niederschläge Wind Luftdruck Luftfeuchtigkeit
    00:00 +13°C° 0 mm 1 m/S 635 mmHg 91%
    01:00 +13°C° 0 mm 1 m/S 635 mmHg 90%
    02:00 +13°C° 0 mm 1 m/S 635 mmHg 89%
    03:00 +13°C° 0 mm 1 m/S 635 mmHg 88%
    04:00 +13°C° 0 mm 1 m/S 635 mmHg 87%
    05:00 +13°C° 0 mm 1 m/S 635 mmHg 86%
    06:00 +13°C° 0 mm 1 m/S 636 mmHg 85%
    07:00 +16°C° 0 mm 1 m/S 637 mmHg 78%
    08:00 +19°C° 0 mm 1 m/S 638 mmHg 71%
    09:00 +21°C° 0 mm 1 m/S 639 mmHg 64%
    10:00 +22°C° 0.3 mm 1 m/S 639 mmHg 63%
    11:00 +22°C° 0.3 mm 1 m/S 639 mmHg 62%
    12:00 +21°C° 0.3 mm 2 m/S 639 mmHg 62%
    13:00 +22°C° 1.3 mm 1 m/S 639 mmHg 66%
    14:00 +21°C° 1.3 mm 1 m/S 638 mmHg 69%
    15:00 +21°C° 1.3 mm 1 m/S 638 mmHg 73%
    16:00 +18°C° 0.9 mm 0 m/S 637 mmHg 78%
    17:00 +17°C° 0.9 mm 0 m/S 637 mmHg 82%
    18:00 +15°C° 0.9 mm 0 m/S 636 mmHg 86%
    19:00 +15°C° 0.3 mm 0 m/S 636 mmHg 87%
    20:00 +15°C° 0.3 mm 1 m/S 637 mmHg 87%
    21:00 +14°C° 0.3 mm 1 m/S 637 mmHg 87%
    22:00 +14°C° 0.1 mm 1 m/S 637 mmHg 86%
    23:00 +14°C° 0.1 mm 1 m/S 636 mmHg 86%

    30 August, Freitag

    Zeit Temperatur Niederschläge Wind Luftdruck Luftfeuchtigkeit
    00:00 +13°C° 0.1 mm 1 m/S 636 mmHg 85%
    01:00 +13°C° 0.2 mm 1 m/S 636 mmHg 85%
    02:00 +13°C° 0.2 mm 1 m/S 636 mmHg 85%
    03:00 +13°C° 0.2 mm 1 m/S 636 mmHg 85%
    04:00 +13°C° 0.1 mm 1 m/S 636 mmHg 86%
    05:00 +14°C° 0.1 mm 1 m/S 636 mmHg 86%
    06:00 +14°C° 0.1 mm 1 m/S 636 mmHg 86%
    07:00 +16°C° 0.4 mm 1 m/S 637 mmHg 81%
    08:00 +19°C° 0.4 mm 1 m/S 638 mmHg 76%
    09:00 +20°C° 0.4 mm 1 m/S 639 mmHg 71%
    10:00 +21°C° 1.4 mm 1 m/S 639 mmHg 69%
    11:00 +22°C° 1.4 mm 1 m/S 639 mmHg 68%
    12:00 +22°C° 1.4 mm 1 m/S 639 mmHg 66%
    13:00 +22°C° 1.6 mm 1 m/S 638 mmHg 66%
    14:00 +22°C° 1.6 mm 1 m/S 638 mmHg 65%
    15:00 +22°C° 1.6 mm 1 m/S 637 mmHg 64%
    16:00 +21°C° 1.6 mm 1 m/S 637 mmHg 72%
    17:00 +19°C° 1.6 mm 1 m/S 636 mmHg 80%
    18:00 +16°C° 1.6 mm 1 m/S 635 mmHg 88%
    19:00 +15°C° 1 mm 1 m/S 635 mmHg 89%
    20:00 +14°C° 1 mm 1 m/S 635 mmHg 89%
    21:00 +13°C° 1 mm 2 m/S 635 mmHg 90%
    22:00 +13°C° 0 mm 2 m/S 635 mmHg 87%
    23:00 +13°C° 0 mm 2 m/S 635 mmHg 84%
    Mehr zeigen